Bowling Green, KY

7:45 PM CDT on July 20, 2017 (GMT -0500)
Bowling Green-Warren County Regional

Weather History for KBWG - March, 2015

Change the Weather History Date:

Wednesday, March 25, 2015

  Actual Average Record
Temperature  
Mean Temperature 65 °F 51 °F  
Max Temperature 77 °F 63 °F 90 °F (1907)
Min Temperature 53 °F 39 °F 20 °F (1960)
Degree Days  
Heating Degree Days 0 14  
Month to date heating degree days 433 442  
Since 1 July heating degree days 3968 3640  
Cooling Degree Days 0 0  
Month to date cooling degree days 0 0  
Year to date cooling degree days 0 0  
Growing Degree Days 16 (Base 50)    
Moisture  
Dew Point 52 °F    
Average Humidity 56    
Maximum Humidity 72    
Minimum Humidity 40    
Precipitation  
Precipitation 0.00 in 0.15 in 1.65 in (1965)
Month to date precipitation 5.92 3.50  
Year to date precipitation 11.80 11.07  
Snow  
Snow 0.00 in 0.00 in 0.50 in (2013)
Month to date snowfall 7.2 0.9  
Since 1 July snowfall 23.5 8.7  
Snow Depth 0.00 in    
Sea Level Pressure  
Sea Level Pressure 30.01 in    
Wind  
Wind Speed 11 mph (SSW)    
Max Wind Speed 18 mph    
Max Gust Speed 27 mph    
Visibility 10 miles    
Events      
T = Trace of Precipitation, MM = Missing Value Source: NWS Daily Summary

Daily Weather History Graph

Daily Weather History Graph

Search for Another Location

Airport or City:

Trip Planner

Search our weather history database for the weather conditions in past years. The results will help you decide how hot, cold, wet, or windy it might be!

Date:

Astronomy

Mar. 25, 2015 Rise Set
Actual Time 6:42 AM CDT 7:01 PM CDT
Civil Twilight 6:16 AM CDT 7:27 PM CDT
Nautical Twilight 5:45 AM CDT 7:58 PM CDT
Astronomical Twilight 5:14 AM CDT 8:29 PM CDT
Moon 10:34 AM CDT (3/25) 12:01 AM CDT (3/25)
Length of Visible Light 13h 11m
Length of Day
12h 19m
Waxing Crescent, 34% of the Moon is Illuminated
Mar 25
Waxing Crescent
Mar 27
First Quarter
Apr 4
Full
Apr 11
Last Quarter
Apr 18
New

Hourly Weather History & Observations

Time (CDT) Temp. Dew Point Humidity Pressure Visibility Wind Dir Wind Speed Gust Speed Precip Events Conditions
12:53 AM 54.0 °F 45.0 °F 72% 29.97 in 10.0 mi Calm Calm - N/A   Clear
1:53 AM 62.1 °F 50.0 °F 65% 29.97 in 10.0 mi South 16.1 mph - N/A   Clear
2:53 AM 63.0 °F 50.0 °F 63% 30.01 in 10.0 mi SSW 11.5 mph - N/A   Mostly Cloudy
3:53 AM 62.1 °F 50.0 °F 65% 29.99 in 10.0 mi South 13.8 mph - N/A   Mostly Cloudy
4:53 AM 62.1 °F 50.0 °F 65% 30.00 in 10.0 mi SSW 13.8 mph - N/A   Overcast
5:53 AM 61.0 °F 50.0 °F 67% 30.03 in 10.0 mi SSW 11.5 mph - N/A   Mostly Cloudy
6:53 AM 61.0 °F 51.1 °F 70% 30.04 in 10.0 mi South 13.8 mph - N/A   Overcast
7:38 AM 61.0 °F 51.1 °F 70% 30.06 in 10.0 mi SSW 10.4 mph - N/A   Mostly Cloudy
7:53 AM 62.1 °F 51.1 °F 67% 30.06 in 10.0 mi SSW 11.5 mph - N/A   Overcast
8:36 AM 64.0 °F 52.0 °F 65% 30.07 in 10.0 mi SSW 13.8 mph - N/A   Scattered Clouds
8:53 AM 64.0 °F 52.0 °F 65% 30.07 in 10.0 mi SSW 11.5 mph 20.7 mph N/A   Mostly Cloudy
9:53 AM 66.0 °F 53.1 °F 63% 30.07 in 10.0 mi SSW 12.7 mph 23.0 mph N/A   Mostly Cloudy
10:53 AM 68.0 °F 53.1 °F 59% 30.07 in 10.0 mi SW 16.1 mph 21.9 mph N/A   Overcast
11:53 AM 71.1 °F 54.0 °F 55% 30.06 in 10.0 mi SW 13.8 mph - N/A   Mostly Cloudy
12:53 PM 73.9 °F 54.0 °F 50% 30.05 in 10.0 mi SW 13.8 mph 23.0 mph N/A   Mostly Cloudy
1:53 PM 77.0 °F 54.0 °F 45% 30.03 in 10.0 mi SW 12.7 mph - N/A   Mostly Cloudy
2:53 PM 77.0 °F 54.0 °F 45% 30.01 in 10.0 mi South 12.7 mph - N/A   Scattered Clouds
3:53 PM 77.0 °F 52.0 °F 42% 29.99 in 10.0 mi SW 10.4 mph - N/A   Scattered Clouds
4:53 PM 75.9 °F 53.1 °F 45% 29.98 in 10.0 mi South 8.1 mph - N/A   Scattered Clouds
5:53 PM 75.0 °F 54.0 °F 48% 29.98 in 10.0 mi South 9.2 mph - N/A   Partly Cloudy
6:53 PM 71.1 °F 54.0 °F 55% 29.96 in 10.0 mi South 6.9 mph - N/A   Scattered Clouds
7:53 PM 70.0 °F 54.0 °F 57% 29.95 in 10.0 mi South 6.9 mph - N/A   Partly Cloudy
8:53 PM 68.0 °F 53.1 °F 59% 29.96 in 10.0 mi South 5.8 mph - N/A   Clear
9:53 PM 66.9 °F 53.1 °F 61% 29.93 in 10.0 mi South 6.9 mph - N/A   Partly Cloudy
10:53 PM 64.9 °F 53.1 °F 65% 29.94 in 10.0 mi South 5.8 mph - N/A   Mostly Cloudy
11:53 PM 63.0 °F 52.0 °F 67% 29.91 in 10.0 mi South 6.9 mph - N/A   Clear